This demonstration page uses our WeatherBlox Daily Observations layout. Learn more.

38.89511, -77.03637

Hourly Observations for August 24, 2015

Temp ( °F °C ) Dew Point ( °F °C ) Humidity (%) Winds ( mph kmh ) Pressure ( in mb ) Visibility ( mi km ) Precip ( " mm )
12:52 am 00:52 Cloudy 75 24 63 17 65 65 SSW 7 11 29.94 1014 10 16.09344 0 0
1:52 am 01:52 Partly Cloudy 73 23 63 17 69 69 SSW 6 9 29.94 1014 10 16.09344 0 0
2:52 am 02:52 Partly Cloudy 73 23 64 18 74 74 SSE 6 9 29.91 1013 10 16.09344 0 0
3:52 am 03:52 Partly Cloudy 72 22 64 18 78 78 S 6 9 29.91 1013 10 16.09344 0 0
4:52 am 04:52 Partly Cloudy 72 22 63 17 73 73 SSW 8 13 29.91 1013 10 16.09344 0 0
5:52 am 05:52 Mostly Cloudy 72 22 64 18 78 78 S 7 11 29.91 1013 10 16.09344 0 0
6:52 am 06:52 Mostly Cloudy 72 22 64 18 78 78 SE 5 7 29.91 1013 10 16.09344 0 0
7:52 am 07:52 Mostly Cloudy 73 23 64 18 74 74 S 5 7 29.91 1013 10 16.09344 0 0
8:52 am 08:52 Mostly Cloudy 73 23 66 19 78 78 S 5 7 29.91 1013 10 16.09344 0 0
9:52 am 09:52 Mostly Cloudy 79 26 66 19 65 65 S 8 13 29.91 1013 10 16.09344 0 0
10:52 am 10:52 Partly Cloudy 81 27 66 19 62 62 SSE 7 11 29.91 1013 10 16.09344 0 0
11:52 am 11:52 Partly Cloudy 84 29 68 20 58 58 SSE 8 13 29.91 1013 10 16.09344 0 0
12:52 pm 12:52 Partly Cloudy 86 30 70 21 59 59 S 8 13 29.88 1012 10 16.09344 0 0
1:52 pm 13:52 Mostly Cloudy 88 31 68 20 52 52 S 9 15 29.88 1012 10 16.09344 0 0
2:52 pm 14:52 Partly Cloudy 90 32 68 20 49 49 S 9 15 29.83 1010 10 16.09344 0 0
3:52 pm 15:52 Partly Cloudy 90 32 72 22 55 55 S 12 19 29.83 1010 10 16.09344 0 0
4:52 pm 16:52 Partly Cloudy 88 31 70 21 55 55 S 10 17 29.8 1009 10 16.09344 0 0
5:52 pm 17:52 Mostly Cloudy 88 31 70 21 55 55 SSW 12 19 29.8 1009 10 16.09344 0 0
6:52 pm 18:52 Mostly Cloudy 86 30 72 22 62 62 S 7 11 29.8 1009 10 16.09344 0 0
7:13 pm 19:13 Cloudy 84 29 72 22 66 66 S 8 13 29.83 1010 10 16.09344 0.001 0.001
7:29 pm 19:29 Cloudy with Light Rain 84 29 72 22 66 66 WNW 10 17 29.83 1010 10 16.09344 0.001 0.001
7:36 pm 19:36 Cloudy with Light Rain 81 27 72 22 74 74 NW 12 19 29.83 1010 10 16.09344 0 0
7:42 pm 19:42 Cloudy with Light Thunderstorms 81 27 72 22 74 74 WNW 13 20 29.83 1010 10 16.09344 0 0
7:52 pm 19:52 Cloudy with Heavy Thunderstorms 75 24 70 21 83 83 WSW 20 31 29.85 1011 1.5 2.414016 0.001 0.001
7:56 pm 19:56 Cloudy with Heavy Thunderstorms 73 23 72 22 94 94 W 21 33 29.85 1011 1 1.609344 0.09 2.286
8:00 pm 20:00 Cloudy with Heavy Thunderstorms 73 23 70 21 89 89 W 23 37 29.83 1010 0.75 1.207008 0 0
8:05 pm 20:05 Cloudy with Heavy Thunderstorms 73 23 70 21 89 89 W 24 39 29.83 1010 1.5 2.414016 0.31 7.874
8:11 pm 20:11 Mostly Cloudy with Light Thunderstorms 73 23 72 22 94 94 W 17 28 29.83 1010 4 6.437376 0.4 10.16
8:16 pm 20:16 Mostly Cloudy with Light Thunderstorms 75 24 70 21 83 83 W 13 20 29.83 1010 8 12.874752 0 0
8:23 pm 20:23 Mostly Cloudy with Light Rain 75 24 68 20 78 78 W 9 15 29.83 1010 10 16.09344 0.41 10.414
8:40 pm 20:40 Partly Cloudy 75 24 70 21 83 83 NW 5 7 29.83 1010 10 16.09344 0 0
8:52 pm 20:52 Partly Cloudy 75 24 72 22 89 89 ENE 8 13 29.83 1010 10 16.09344 0.41 10.414
9:52 pm 21:52 Cloudy 75 24 72 22 89 89 ENE 3 6 29.85 1011 10 16.09344 0 0
10:52 pm 22:52 Mostly Cloudy 75 24 72 22 89 89 Calm 29.88 1012 10 16.09344 0 0
11:52 pm 23:52 Mostly Cloudy 75 24 72 22 89 89 N 3 6 29.88 1012 10 16.09344 0 0

Powered by AerisWeather